Flag for Germany Weather past 2 weeks in Schweinfurt, Bavaria, Germany

Now
72 °F

Partly sunny.


Feels Like: 76 °F
Forecast: 56 / 79 °F
Wind: 2 mph from Northeast

Location: Wuerzburg

Current Time: Jul 31, 2015 at 6:27:31 PM

Latest Report: Jul 31, 2015 at 6:00 PM


Visibility: 37 mi

Pressure: 30.01 "Hg

Humidity: 32%

Dew point: 40 °F

Location of SchweinfurtLocation

Historic Weather in Schweinfurt — Graph

°F

Schweinfurt temperature yesterday

Maximum temperature yesterday: 71 °F (at 2:00 PM)
Minimum temperature yesterday: 49 °F (at 5:00 AM)
Average temperature yesterday: 61 °F

Past Weeks' High & Low Weather Summary

 TemperatureHumidityPressure
High94 °F (Jul 17, 6:00 PM)95% (Jul 20, 4:00 AM)30.14 "Hg (Jul 20, 4:00 AM)
Low49 °F (Jul 30, 5:00 AM)18% (Jul 17, 4:00 PM)29.68 "Hg (Jul 25, 5:00 AM)
Average70 °F59%29.92 "Hg
* Reported Jul 16 5:00 PM — Jul 31 5:00 PM, Schweinfurt, Weather by CustomWeather, © 2015

Note: Actual official high and low records may vary slightly from our data, if they occured in-between our weather recording intervals... More about our weather records

Advertising

Schweinfurt weather history for previous 24 hours

 ConditionsComfort  
Time TempWeatherWind HumidityBarometerVisibility
5:00 PM
Fri, Jul 31
72 °FOvercast.2 mph33%30.02 "Hg37 mi
4:00 PM72 °FOvercast.2 mph32%30.03 "Hg34 mi
3:00 PM72 °FPartly sunny.2 mph33%30.05 "Hg34 mi
2:00 PM69 °FPartly sunny.2 mph38%30.09 "Hg37 mi
1:00 PM64 °FPartly sunny.3 mph45%30.10 "Hg31 mi
12:00 PM66 °FScattered clouds.3 mph46%30.11 "Hg31 mi
11:00 AM61 °FScattered clouds.2 mph55%30.12 "Hg37 mi
10:00 AM61 °FSunny.3 mph55%30.13 "Hg31 mi
9:00 AM58 °FSunny.3 mph63%30.14 "Hg25 mi
8:00 AM55 °FSunny.1 mph74%30.14 "Hg25 mi
7:00 AM51 °FSunny.1 mph85%30.14 "Hg25 mi
5:00 AM51 °FClear.1 mph82%30.12 "Hg31 mi
4:00 AM53 °FClear.2 mph77%30.11 "Hg31 mi
3:00 AM53 °FClear.2 mph74%30.11 "Hg31 mi
2:00 AM55 °FPassing clouds.2 mph69%30.10 "Hg37 mi
1:00 AM58 °FPassing clouds.1 mph63%30.09 "Hg37 mi
11:00 PM
Thu, Jul 30
61 °FPassing clouds.3 mph54%30.06 "Hg37 mi
10:00 PM62 °FPassing clouds.3 mph47%30.04 "Hg37 mi
9:00 PM65 °FPartly sunny.2 mph41%30.01 "Hg37 mi
8:00 PM66 °FPartly sunny.3 mph39%29.99 "Hg37 mi
7:00 PM69 °FPartly sunny.5 mph33%29.98 "Hg37 mi
6:00 PM71 °FPartly sunny.7 mph31%29.97 "Hg37 mi
Weather by CustomWeather, © 2015

See weather overviewHow to use our weather pages